Regional Weather Roundup
Issued by NWS Wilmington, NC

Home | Current Version | Previous Version | Text Only | Print | Product List | Glossary On
Versions: 1 2 3 4 5 6 7 8 9 10 11 12 13 14 15 16 17 18 19 20 21 22 23 24 25 26 27 28 29 30 31 32 33 34 35 36 37 38 39 40 41 42 43 44 45 46 47 48 49 50
000
ASUS42 KILM 040213
RWRILM
RWRILM
REGIONAL HOURLY WEATHER ROUNDUP
NATIONAL WEATHER SERVICE WILMINGTON NC
1000 PM EDT SUN MAY 03 2015

NOTE: "FAIR" INDICATES FEW OR NO CLOUDS BELOW 12,000 FEET WITH NO
SIGNIFICANT WEATHER AND/OR OBSTRUCTIONS TO VISIBILITY.

...............WFO WILMINGTON COUNTY WARNING AREA...............

......COASTAL NC AND SC COUNTIES......

CITY           SKY/WX    TMP DP  RH WIND       PRES   REMARKS
WILMINGTON     CLEAR     63  52  67 S3        30.23R
N MYRTLE BEACH CLEAR     68  57  68 S7        30.23R
MYRTLE BEACH   CLEAR     68  57  68 S12       30.24R

......INLAND NC AND SC COUNTIES.......

CITY           SKY/WX    TMP DP  RH WIND       PRES   REMARKS
LUMBERTON      CLEAR     65  51  60 S5        30.21R
ELIZABETHTOWN  CLEAR     63  47  55 CALM      30.22R
WHITEVILLE     CLEAR     64  52  65 CALM      30.22R
FLORENCE       PTCLDY    66  54  65 SE9       30.21R
DARLINGTON     CLEAR     68  52  56 S10       30.21R

....................REST OF NORTH CAROLINA......................

.........EASTERN NC.........

CITY           SKY/WX    TMP DP  RH WIND       PRES   REMARKS
CAPE HATTERAS  CLEAR     59  57  93 W7        30.23R
JACKSONVILLE   CLEAR     57  46  67 SW3       30.24R
MOREHEAD CITY  PTCLDY    63  59  87 SW3       30.23R
KENANSVILLE    CLEAR     60  49  66 CALM      30.23R
NEW BERN       PTCLDY    63  48  58 CALM      30.24R
ELIZABETH CITY PTCLDY    64  52  64 S7        30.20R

.........CENTRAL NC.........

CITY           SKY/WX    TMP DP  RH WIND       PRES   REMARKS
RALEIGH DURHAM PTCLDY    61  49  64 CALM      30.20R
ROCKY MOUNT    CLEAR     57  53  86 CALM      30.19R
ROANOKE RAPIDS NOT AVBL
FAYETTEVILLE   CLEAR     67  47  48 S8        30.20R
HOFFMAN        CLEAR     60  54  82 SE6       30.23R

.........WESTERN NC.........

CITY           SKY/WX    TMP DP  RH WIND       PRES   REMARKS
CHARLOTTE      CLEAR     66  47  50 S5        30.19R
GREENSBORO     PTCLDY    65  46  50 S5        30.18R
HICKORY        NOT AVBL
BOONE          NOT AVBL
ASHEVILLE      NOT AVBL

.....................REST OF SOUTH CAROLINA.....................

.........EASTERN SC.........

CITY           SKY/WX    TMP DP  RH WIND       PRES   REMARKS
CHARLESTON     CLEAR     65  59  81 SE7       30.22R
BEAUFORT MCAS  CLEAR     70  58  65 S3        30.21R
HILTON HEAD    CLEAR     66  61  82 S3        30.22R

.........CENTRAL SC.........

CITY           SKY/WX    TMP DP  RH WIND       PRES   REMARKS
COLUMBIA       MOCLDY    67  54  63 CALM      30.18R
ORANGEBURG     CLEAR     64  55  72 SE3       30.19R
SUMTER SHAW    CLEAR     68  54  61 S6        30.18R

.........WESTERN SC.........

CITY           SKY/WX    TMP DP  RH WIND       PRES   REMARKS
GREENVILLE     NOT AVBL
ROCK HILL      CLEAR     61  51  70 SW3       30.19R
ANDERSON       CLEAR     64  53  67 CALM      30.18R
CLEMSON        NOT AVBL
GREENWOOD      CLEAR     62  54  74 CALM      30.19R


...................COASTAL AND OFFSHORE REPORTS..................

................LOCAL PIERS AND NC RESERVE................


STATION/POSITION TIME  SKY/WX   TEMP    WIND        PRES    VSBY
                                AIR SEA DIR/SP/G
                 (UTC)          (F)     (DEG/KT/KT) (MB)    (MI)
JOHNY MRCER PIER 0100            68 68  200/  9/ 10 1022.4R
NC RESRV MASNBRO NOT AVBL
OCEAN CREST PIER 0202            69 70  150/  6/  7 1022.9R
SPRINGMAID  PIER 0100            69 67  130/  7/  8 1023.0R


................COASTAL AND OFFSHORE BUOYS................


STATION/POSITION TIME  SKY/WX   TEMP    WIND        PRES    VSBY
                                AIR SEA DIR/SP/G
                 (UTC)          (F)     (DEG/KT/KT) (MB)    (MI)
DIMNDSHOAL 41025 0150            65 61  250/  6/  8 1023.5R
WVE H/P(F/S)=  5/ 8 WND WVE H/P(F/S)=  2/ 4 SWL H/P/D(F/S/D)=  5/ 80/ 8

CAPE LOOKOUT     0200            67     210/  5/  6 1023.6R
ONSLOW BAY 41036 NOT AVBL
5 WRITEBCH 41038 0108            69 68  190/  8/ 10 1022.9R
MASONBORO  41110 0119               68                N/A
WVE H/P(F/S)=  2/13 WND WVE H/P(F/S)=  2/10 SWL H/P/D(F/S/D)=  2/110/13

WILM HARBR 41108 0111               67                N/A
WVE H/P(F/S)=  2/14 WND WVE H/P(F/S)=  2/10 SWL H/P/D(F/S/D)=  2/120/14

27WRITEBCH 41037 0100            68 72  200/ 12/ 14   N/A
FRYING PAN 41013 0150            73 73  160/ 10/ 12 1024.5R
WVE H/P(F/S)=  4/14 SWL H/P/D(F/S/D)=  3/100/14

SUNST NRSH 41024 0108            69     170/  8/ 10 1022.8R
CAPRS NRSH 41029 0108            70     150/ 10/ 12 1022.9R
EDISTO     41004 0150            73 75  130/  8/ 10 1023.1R
WVE H/P(F/S)=  2/ 9 SWL H/P/D(F/S/D)=  2/ 9



..........OFFSHORE BUOYS BEYOND 100 NM OFFSHORE...........
.....IN A TRIANGLE---HAT TO BERMUDA TO BAHAMAS TO HAT.....


STATION/POSITION TIME  SKY/WX   TEMP    WIND        PRES    VSBY
                                AIR SEA DIR/SP/G
                 (UTC)          (F)     (DEG/KT/KT) (MB)    (MI)
150E HAT   41001 NOT AVBL
W BERMUDA  41048 0150            67 70  360/ 12/ 16 1022.2R
WVE H/P(F/S)=  8/11 WND WVE H/P(F/S)=  3/ 5 SWL H/P/D(F/S/D)=  8/ 20/11

ATLANTIC S 41049 0150            74 77  340/  6/  8 1020.4R
WVE H/P(F/S)=  7/11 WND WVE H/P(F/S)=  2/ 4 SWL H/P/D(F/S/D)=  7/300/11

E BAHAMAS  41046 0150            78 80   70/ 16/ 19 1018.2R
WVE H/P(F/S)=  7/11 WND WVE H/P(F/S)=  5/ 8 SWL H/P/D(F/S/D)=  5/360/11

NE BAHAMAS 41047 0150            72 75   50/ 16/ 19 1019.9R
WVE H/P(F/S)=  8/10 WND WVE H/P(F/S)=  3/ 7 SWL H/P/D(F/S/D)=  8/360/10

120E CANVRL41010 0120            73 78   60/ 10/ 14 1022.4R

END



USA.gov is the U.S. government's official web portal to all federal, state and local government web resources and services.